DateTime,Index
2003040806,0.0
2003040812,0.0
2003040818,0.0
2003040900,0.0
2003040906,1225.0
2003040912,1225.0
2003040918,1225.0
2003041000,1600.0
2003041006,1600.0
2003041012,1600.0
2003041018,1600.0
2003041100,1600.0
2003041106,1600.0
2003041112,1600.0
2003041118,2500.0
2003041200,3025.0
2003041206,3025.0
2003041212,3025.0
2003041218,4225.0
2003041300,4225.0
2003041306,4225.0
2003041312,5625.0
2003041318,5625.0
2003041400,8100.0
2003041406,10000.0
2003041412,12100.0
2003041418,14400.0
2003041500,15625.0
2003041506,15625.0
2003041512,15625.0
2003041518,16900.0
2003041600,18225.0
2003041606,18225.0
2003041612,16900.0
2003041618,13225.0
2003041700,13225.0
2003041706,12100.0
2003041712,11025.0
2003041718,11025.0
2003041800,13225.0
2003041806,15625.0
2003041812,15625.0
2003041818,14400.0
2003041900,13225.0
2003041906,11025.0
2003041912,9025.0
2003041918,8100.0
2003042000,7225.0
2003042006,9025.0
2003042012,10000.0
2003042018,10000.0
2003042100,10000.0
2003042106,9025.0
2003042112,7225.0
2003042118,5625.0
2003042200,3025.0
2003042206,2500.0
2003042212,2025.0
2003042218,2025.0
2003042300,1225.0
2003042306,1225.0
2003042312,1225.0
2003042318,1225.0
2003042400,1225.0
2003042406,1225.0
2003042412,1225.0
2003042418,1225.0
2003042500,1225.0
2003042506,0.0
2003042512,0.0
